Flag for Australia Weather past 2 weeks in Wodonga, Victoria, Australia

Now
53 °F

Cool.


Feels Like: 53 °F
Forecast: 49 / 83 °F
Wind: No wind

Location: Albury Aeroport Aws

Current Time: Dec 27, 2014 at 6:18:43 AM

Latest Report: Dec 27, 2014 at 4:00 AM


Visibility: N/A

Pressure: 30.03 "Hg

Humidity: 66%

Dew point: 42 °F

Location of WodongaLocation

Historic Weather in Wodonga — Graph

°F

Wodonga temperature yesterday

Maximum temperature yesterday: 77 °F (at 4:00 PM)
Minimum temperature yesterday: 60 °F (at 7:00 AM)
Average temperature yesterday: 68 °F

Past Weeks' High & Low Weather Summary

 TemperatureHumidityPressure
High93 °F (Dec 16, 4:00 PM)83% (Dec 13, 6:00 AM)30.09 "Hg (Dec 13, 6:00 AM)
Low51 °F (Dec 18, 6:00 AM)10% (Dec 16, 4:00 PM)29.35 "Hg (Dec 16, 6:00 PM)
Average73 °F45%29.82 "Hg
* Reported Dec 12 4:00 AM — Dec 27 4:00 AM, Wodonga, Weather by CustomWeather, © 2014

Note: Actual official high and low records may vary slightly from our data, if they occured in-between our weather recording intervals... More about our weather records

Advertising

Wodonga weather history for previous 24 hours

 ConditionsComfort  
Time TempWeatherWind HumidityBarometerVisibility
4:00 AM
Dec 27
53 °FCool.No wind66%30.03 "HgN/A
3:00 AM55 °FCool.No wind65%30.02 "HgN/A
1:00 AM58 °FRefreshingly cool.No wind53%30.01 "HgN/A
12:00 AM60 °FRefreshingly cool.6 mph48%29.99 "HgN/A
10:00 PM
Dec 26
65 °FMild.9 mph38%29.99 "HgN/A
9:00 PM68 °FMild.13 mph33%29.96 "HgN/A
7:00 PM75 °FMild.13 mph21%29.89 "HgN/A
6:00 PM76 °FMild.9 mph17%29.87 "HgN/A
4:00 PM77 °FMild.9 mph19%29.88 "HgN/A
3:00 PM76 °FMild.9 mph23%29.89 "HgN/A
1:00 PM73 °FMild.13 mph25%29.90 "HgN/A
12:00 PM69 °FMild.13 mph29%29.90 "HgN/A
10:00 AM64 °FMild.12 mph39%29.90 "HgN/A
9:00 AM62 °FRefreshingly cool.15 mph42%29.90 "HgN/A
7:00 AM60 °FRefreshingly cool.15 mph53%29.85 "HgN/A
6:00 AM60 °FOvercast.13 mph62%29.81 "HgN/A
Weather by CustomWeather, © 2014

See weather overviewHow to use our weather pages